Regional Weather Roundup
Issued by NWS

Home | Current Version | Previous Version | Text Only | Print | Product List | Glossary Off
Versions: 1 2 3 4 5 6 7 8 9 10 11 12 13 14 15 16 17 18 19 20 21 22 23 24 25 26 27 28 29 30 31 32 33 34 35 36 37 38 39 40 41 42 43 44 45 46 47 48 49 50

740
ASUS43 KMKX 041421
RWRWI

WISCONSIN REGIONAL WEATHER ROUNDUP
NATIONAL WEATHER SERVICE MILWAUKEE/SULLIVAN WI
900 AM CDT WED MAY 04 2016

NOTE: "FAIR" INDICATES FEW OR NO CLOUDS BELOW 12,000 FEET WITH NO
SIGNIFICANT WEATHER AND/OR OBSTRUCTIONS TO VISIBILITY.

WIZ001-002-006>008-014>016-023>028-041500-
NORTHWEST WISCONSIN

CITY           SKY/WX    TMP DP  RH WIND       PRES   REMARKS
SUPERIOR ARPT  SUNNY     51  33  49 N9        29.98R
ASHLAND        SUNNY     50  32  50 N13       29.94R
HAYWARD        SUNNY     47  30  51 N12G21    29.94R
SIREN          MOSUNNY   50  33  51 N12       29.97R
CUMBERLAND     MOSUNNY   46  32  57 N16       29.94S
RICE LAKE      MOSUNNY   49  33  52 N10G16    29.95S
CHETEK         SUNNY     49  35  58 N8G17     29.93S
LADYSMITH      SUNNY     49  34  55 N17G25    29.92R
EAU CLAIRE     SUNNY     51  36  56 N10       29.92R
MENOMONIE      SUNNY     52  34  51 NW13G18   29.94S
NEW RICHMOND   SUNNY     51  32  48 N12       29.97S
OSCEOLA        SUNNY     50  34  54 N9        30.01R
$$

WIZ003>005-009-010-017-018-041500-
NORTH CENTRAL WISCONSIN

CITY           SKY/WX    TMP DP  RH WIND       PRES   REMARKS
MANITOWISH WTR MOSUNNY   42  31  66 N14G21    29.87R
ARBOR VITAE    MOSUNNY   42  32  69 N14G24    29.86R
WOODRUFF       MOSUNNY   42  32  69 N14G24    29.86R
RHINELANDER    SUNNY     43  31  62 N14G24    29.85R
EAGLE RIVER    CLOUDY    40  29  66 N17G26    29.85R WCI  31
LAND O LAKES   CLOUDY    39  33  80 N14       29.87R WCI  30
PHILLIPS       MOSUNNY   45  33  63 N13       29.87S
TOMAHAWK       SUNNY     44  32  64 N13G20    29.86R
MEDFORD        MOSUNNY   45  35  67 N14       29.86R
MERRILL        MOSUNNY  N/A N/A N/A N10G24    29.85R
$$

WIZ029-030-035-036-043>047-041500-
CENTRAL WISCONSIN

CITY           SKY/WX    TMP DP  RH WIND       PRES   REMARKS
WAUSAU         PTSUNNY   50  35  56 NW16G22   29.83R
MOSINEE        PTSUNNY   45  39  81 N12G17    29.85R
MARSHFIELD     SUNNY     48  33  56 N17       29.85R
STEVENS POINT  PTSUNNY   44  34  66 N14G25    29.84S
WAUPACA        PTSUNNY   48  37  65 NW14      29.82R
WAUTOMA        PTSUNNY   47  37  68 N16       29.82S
WISC RAPIDS    MOSUNNY   49  35  58 N12       29.86R
CAMP DOUGLAS   MOSUNNY   48  48 100 NW15      29.86S
$$

WIZ011>013-019>022-031-037>040-048>050-041500-
NORTHEAST WISCONSIN

CITY           SKY/WX    TMP DP  RH WIND       PRES   REMARKS
ANTIGO         PTSUNNY   42  33  70 N16G25    29.83R
SHAWANO        CLOUDY    46  36  68 N17       29.82R
OCONTO         CLOUDY    43  33  68 N12G22    29.80R
STURGEON BAY   CLOUDY    43  32  65 N20G29    29.81R
GREEN BAY      CLOUDY    45  35  68 N17G28    29.80R
MANITOWOC      CLOUDY    45  36  70 N21G33    29.77R
APPLETON       PTSUNNY   45  34  65 N13G24    29.77S
CLINTONVILLE   CLOUDY    45  34  65 N16G23    29.81S
OSHKOSH        CLOUDY    45  36  70 N14G25    29.79R
$$

WIZ032>034-041-042-053>061-041500-
SOUTHWEST WISCONSIN

CITY           SKY/WX    TMP DP  RH WIND       PRES   REMARKS
LA CROSSE      SUNNY     52  37  56 NW14      29.91R
SPARTA         MOSUNNY   49  38  64 N13G18    29.90R
VIROQUA        SUNNY     48  37  67 N16       29.88R
BOSCOBEL       MOSUNNY   52  38  58 N13G18    29.88R
PRAIRIE DU CHI MOSUNNY   51  35  55 N12G18    29.89S
PLATTEVILLE    MOSUNNY   49  42  75 N18G25    29.85R
$$

WIZ056-057-062-063-064-067-068-041500-
SOUTH CENTRAL WISCONSIN

CITY           SKY/WX    TMP DP  RH WIND       PRES   REMARKS
REEDSBURG      PTSUNNY   47  38  69 N18G25    29.84S
BARABOO/DELLS  PTSUNNY   48  37  65 N10G20    29.83R
LONE ROCK      MOSUNNY   50  38  63 N15G28    29.86R
MINERAL POINT  CLOUDY    48  37  66 N18       29.85R
MADISON        PTSUNNY   48  37  65 N21       29.81S
MIDDLETON      MOSUNNY   49  39  68 N17       29.82S
WATERTOWN      CLOUDY    44  37  77 N15G23    29.79R
MONROE         PTSUNNY   46  37  71 N18G24    29.81R
JANESVILLE     CLOUDY    48  37  66 N13G23    29.79R
$$

WIZ051-052-058>065-066-070>072-041500-
SOUTHEAST WISCONSIN

CITY           SKY/WX    TMP DP  RH WIND       PRES   REMARKS
MILWAUKEE      PTSUNNY   46  36  68 NW21G26   29.75R
WAUKESHA       PTSUNNY   43  34  70 NW17G25   29.78R
MILWAUKEE/TIMM CLOUDY    45  34  65 N18       29.77R
RACINE         CLOUDY    47  35  63 NW17G24   29.76R
BURLINGTON     CLOUDY    44  37  76 N12       29.76R
KENOSHA        PTSUNNY   46  37  71 N17G26    29.75R
FOND DU LAC    CLOUDY    45  37  73 N15G28    29.79R
SHEBOYGAN      CLOUDY    45  36  70 N18G26    29.76R
WEST BEND      CLOUDY    43  34  70 N16G24    29.77R
JUNEAU         CLOUDY    44  37  76 NW16      29.80R
$$

LSZ147-162-041500-
LAKE SUPERIOR

STATION/POSITION TIME  TEMP    WIND        PRES    WAVE
                       AIR SEA DIR/SP/G            HT/PER
                 (UTC) (F)     (DEG/KT/KT) (MB)    (FT/S)
W MID LAKE BUOY  1350   38 37  360/  8/  8 1014.6R   1/ 3
DEVILS ISLAND    1400   41     360/ 13/ 14 1015.1R
SAXON HARBOR     1300   42     340/  6/  7 1012.9R
$$

LMZ867-665-643>646-041500-
LAKE MICHIGAN

STATION/POSITION TIME  TEMP    WIND        PRES    WAVE
                       AIR SEA DIR/SP/G            HT/PER
                 (UTC) (F)     (DEG/KT/KT) (MB)    (FT/S)
CHAMBERS ISLAND  1300   41     340/ 20/ 24 1008.8R
N MID LAKE BUOY  1350   39 38  330/ 19/ 23 1007.2R   4/ 5
NORTHPORT PIER   1401   40     340/ 22     1008.8R
ALGOMA LAKESHORE 1300           10/ 16/ 22   N/A
KEWAUNEE LAKESHO 1400   43     340/ 14/ 22 1007.6R
SHEBOYGAN LAKESH 1400   45     350/ 23/ 26 1008.0R
PORT WASHINGTON  1300   46     340/  9/ 18 1008.1
S MID LAKE BUOY  1350   41 40  350/ 23/ 27 1005.3R   6/ 6
KENOSHA   LAKESH 1400   45     330/ 18/ 24 1007.1R
$$

TC  - TEMPERATURE IN CELSIUS
VSB - VISIBILITY IN STATUTE MILES
WCI - WIND CHILL INDEX
HX  - HEAT INDEX





USA.gov is the U.S. government's official web portal to all federal, state and local government web resources and services.